[[{"header":{"parameterUnit":"m.s-1","parameterCategory":1,"la1":30.2991,"la2":30.254,"lo1":-89.0895,"lo2":-89.0444,"dy":0.0017,"dx":0.0017,"nx":28,"ny":28,"refTime":"2024-12-07T03:00:00:Z","depth":0,"parameterNumber":2,"parameterNumberName":"U-component_of_WINDS"},"data":[0,0,0,0,0,0,0,0,0,0,0,0,0,0,0,0,0,0,0,0,0,0,0,0,0,0,0,0,0,0,0,0,0,0,0,0,0,0,0,0,0,0,0,0,0,0,0,0,0,0,0,0,0,0,0,0,0,0,-3.2502,-3.2503,0,-3.2565,-3.2566,-3.2566,-3.2486,-3.2483,-3.248,-3.2477,-3.2542,-3.2546,-3.2551,0,0,0,0,0,0,0,0,0,0,0,0,0,-3.231,-3.2314,-3.2502,-3.2503,-3.2503,-3.2565,-3.2566,-3.2567,-3.2486,-3.2483,-3.2479,-3.2476,-3.254,-3.2546,-3.2551,0,0,0,0,0,0,0,0,0,0,0,0,0,-3.2386,-3.2316,-3.2502,-3.2471,-3.2469,-3.2565,-3.2566,-3.2567,-3.2487,-3.2483,-3.2478,-3.2474,-3.2539,-3.2545,-3.2552,-3.2681,0,0,-3.2572,-3.2575,0,0,0,0,0,0,0,0,-3.2381,-3.2393,-3.2475,-3.2473,-3.2471,-3.2513,-3.2522,-3.2605,-3.2488,-3.248,-3.2477,-3.2472,-3.2536,-3.2543,-3.2564,-3.2684,-3.2687,-3.2573,-3.2577,-3.258,-3.2582,0,0,0,0,0,0,0,-3.2376,-3.239,-3.2527,-3.2476,-3.2474,-3.2453,-3.2459,-3.2537,-3.2532,-3.2481,-3.2475,-3.2483,-3.2534,-3.2558,-3.2565,-3.2688,-3.2573,-3.2579,-3.2583,-3.2585,-3.2916,-3.292,0,0,0,0,0,0,-3.2375,-3.2386,-3.2525,-3.2529,-3.2414,-3.246,-3.2467,-3.2504,-3.2531,-3.2531,-3.2487,-3.2479,-3.2549,-3.2557,-3.2567,-3.2719,-3.258,-3.2586,-3.259,-3.2911,-3.2917,-3.2922,0,0,0,0,0,0,-3.2371,-3.2388,-3.2522,-3.2456,-3.2471,-3.2468,-3.2511,-3.2508,-3.2531,-3.2536,-3.2534,-3.2513,-3.2545,-3.2558,-3.2653,-3.272,-3.2589,-3.2595,-3.2905,-3.2913,-3.2919,-3.3025,0,0,0,0,0,0,-3.2366,-3.2387,-3.2437,-3.2457,-3.2475,-3.2608,-3.2515,-3.2512,-3.2543,-3.2534,-3.2559,-3.2559,-3.2543,-3.2643,-3.266,-3.2727,-3.26,-3.2899,-3.2909,-3.2917,-3.3016,-3.3035,-3.3052,0,0,0,0,0,-3.2359,-3.2465,-3.244,-3.2457,-3.2537,-3.2612,-3.2622,-3.2601,-3.2549,-3.2598,-3.2601,-3.2559,-3.271,-3.2654,-3.2671,-3.2742,-3.2895,-3.2906,-3.2916,-3.3008,-3.3031,-3.3051,0,0,0,0,0,0,-3.2452,-3.2467,-3.2439,-3.2554,-3.2583,-3.2598,-3.266,-3.2627,-3.2671,-3.266,-3.2632,-3.2639,-3.274,-3.275,-3.2687,-3.2868,-3.2794,-3.2809,-3.2857,-3.288,-3.2898,-3.2893,-3.2606,0,0,0,0,0,-3.2486,-3.2546,-3.2555,-3.2656,-3.2671,-3.2664,-3.2696,-3.2677,-3.2705,-3.2716,-3.2726,-3.2755,-3.2808,-3.2845,-3.2895,-3.3017,-3.3021,-3.3074,-3.3092,-3.3106,-3.3119,-3.3183,-3.3207,-3.2957,-3.2957,-3.2957,0,0,-3.2557,-3.2572,-3.2612,-3.2675,-3.2695,-3.2757,-3.2674,-3.2744,-3.2789,-3.2727,-3.2817,-3.2826,-3.2855,-3.2965,-3.3013,-3.2976,-3.3189,-3.312,-3.3132,-3.3137,-3.3197,-3.322,-3.3241,-3.2964,-3.2963,-3.2962,0,0,-3.2717,-3.2735,-3.282,-3.2841,-3.2872,-3.2866,-3.2886,-3.2907,-3.291,-3.3,-3.2954,-3.3007,-3.3101,-3.3124,-3.3148,-3.3315,-3.3277,-3.3332,-3.3426,-3.3489,-3.3509,-3.3526,-3.3585,-3.3606,-3.3345,-3.3346,-3.3346,0,-3.2801,-3.2893,-3.2868,-3.2941,-3.2969,-3.2915,-3.3,-3.3022,-3.3068,-3.3088,-3.3046,-3.3162,-3.3178,-3.3291,-3.3332,-3.3353,-3.3375,-3.3329,-3.3508,-3.3525,-3.3541,-3.3596,-3.3619,-3.3352,-3.3351,-3.3351,-3.335,0,-3.2994,-3.3059,-3.3124,-3.3168,-3.3204,-3.3283,-3.3269,-3.3309,-3.3286,-3.3284,-3.3376,-3.3394,-3.3446,-3.3471,-3.3451,-3.3581,-3.3557,-3.3512,-3.3437,-3.3571,-3.3623,-3.3644,-3.3361,-3.3359,-3.3357,-3.3355,0,0,-3.3216,-3.3245,-3.3269,-3.3288,-3.3317,-3.3366,-3.3441,-3.3492,-3.3526,-3.3558,-3.3621,-3.37,-3.3659,-3.3686,-3.3667,-3.3722,-3.3852,-3.367,-3.367,-3.3703,-3.3996,-3.4029,-3.4054,-3.3827,-3.3831,-3.3834,-3.3993,0,-3.3376,-3.3507,-3.3486,-3.3612,-3.367,-3.3619,-3.3684,-3.3709,-3.3709,-3.3758,-3.3758,-3.3814,-3.3755,-3.3771,-3.3823,-3.3825,-3.391,-3.3814,-3.3884,-3.3887,-3.3878,-3.4082,-3.4117,-3.4266,-3.4013,-3.4017,-3.4019,0,-3.358,-3.362,-3.3752,-3.377,-3.3794,-3.3853,-3.3897,-3.3945,-3.3971,-3.3967,-3.3997,-3.3967,-3.4042,-3.3966,-3.4068,-3.4002,-3.403,-3.4035,-3.404,-3.4046,-3.3961,-3.4092,-3.4313,-3.4336,-3.4051,-3.4048,-3.4046,0,-3.3728,-3.3814,-3.3904,-3.3922,-3.3945,-3.3988,-3.4,-3.4021,-3.4053,-3.4091,-3.411,-3.4157,-3.4183,-3.4219,-3.4203,-3.4149,-3.4307,-3.423,-3.4305,-3.4306,-3.4341,-3.4339,-3.457,-3.436,-3.436,-3.4359,-3.4359,0,-3.3908,-3.3991,-3.397,-3.4025,-3.4116,-3.409,-3.4181,-3.4186,-3.4206,-3.4261,-3.4219,-3.4271,-3.4247,-3.4297,-3.4285,-3.437,-3.4382,-3.4381,-3.4376,-3.4384,-3.4385,-3.4402,-3.4391,-3.4365,-3.4364,-3.4363,-3.4362,0,-3.4089,-3.4078,-3.4172,-3.4186,-3.4192,-3.4258,-3.427,-3.4321,-3.4317,-3.4387,-3.4402,-3.4396,-3.4453,-3.444,-3.4503,-3.4494,-3.4602,-3.4585,-3.4593,-3.4589,-3.4665,-3.4658,-3.4914,-3.4946,-3.4716,-3.4718,-3.472,0,-3.4205,-3.4267,-3.4287,-3.4321,-3.4335,-3.439,-3.4421,-3.4398,-3.4432,-3.4466,-3.4513,-3.4566,-3.4607,-3.4701,-3.4702,-3.475,-3.4733,-3.4819,-3.474,-3.4745,-3.4733,-3.473,-3.4736,-3.4835,-3.4838,-3.484,-3.4842,0,-3.4411,-3.4402,-3.4449,-3.4493,-3.4531,-3.4566,-3.4596,-3.4626,-3.4604,-3.4645,-3.4702,-3.4734,-3.4798,-3.4851,-3.4894,-3.4906,-3.4871,-3.4867,-3.4887,-3.4895,-3.4897,-3.4897,-3.4636,-3.4861,-3.4859,-3.4858,-3.4857,-3.4856,-3.4562,-3.4614,-3.4636,-3.4689,-3.4709,-3.4738,-3.4786,-3.4788,-3.4835,-3.4885,-3.4868,-3.4934,-3.4957,-3.5011,-3.5028,-3.5078,-3.5046,-3.5075,-3.5082,-3.509,-3.5098,-3.489,-3.5086,-3.5086,-3.5085,-3.5085,-3.5084,0,-3.4766,-3.4777,-3.4826,-3.4868,-3.491,-3.4872,-3.4903,-3.494,-3.4998,-3.5023,-3.5064,-3.5129,-3.518,-3.5185,-3.5232,-3.5272,-3.5257,-3.5285,-3.5282,-3.5285,-3.5125,-3.5103,-3.5296,-3.5296,-3.5296,-3.5296,-3.5296,-3.5296,-3.4877,-3.4963,-3.4956,-3.5051,-3.5061,-3.5125,-3.5146,-3.5172,-3.5191,-3.5266,-3.5307,-3.531,-3.5326,-3.5374,-3.5419,-3.5419,-3.5438,-3.5473,-3.5467,-3.5318,-3.5296,-3.5276,-3.5255,-3.5477,-3.5478,-3.5622,-3.5623,-3.5624]},{"header":{"parameterUnit":"m.s-1","parameterCategory":1,"la1":30.2991,"la2":30.254,"lo1":-89.0895,"lo2":-89.0444,"dy":0.0017,"dx":0.0017,"nx":28,"ny":28,"refTime":"2024-12-07T03:00:00:Z","depth":0,"parameterNumber":3,"parameterNumberName":"V-component_of_WINDS"},"data":[0,0,0,0,0,0,0,0,0,0,0,0,0,0,0,0,0,0,0,0,0,0,0,0,0,0,0,0,0,0,0,0,0,0,0,0,0,0,0,0,0,0,0,0,0,0,0,0,0,0,0,0,0,0,0,0,0,0,0.9484,0.9483,0,0.9461,0.946,0.946,0.9427,0.9427,0.9426,0.9426,0.9401,0.9401,0.9401,0,0,0,0,0,0,0,0,0,0,0,0,0,0.9499,0.9498,0.9484,0.9483,0.9483,0.9461,0.946,0.946,0.9428,0.9427,0.9426,0.9426,0.9401,0.9401,0.9401,0,0,0,0,0,0,0,0,0,0,0,0,0,0.9485,0.9498,0.9484,0.9464,0.9462,0.9461,0.946,0.946,0.9428,0.9427,0.9426,0.9425,0.9401,0.9401,0.9401,0.9416,0,0,0.94,0.94,0,0,0,0,0,0,0,0,0.9486,0.9485,0.9467,0.9465,0.9463,0.9446,0.9456,0.9445,0.9428,0.9441,0.9426,0.9425,0.9417,0.9415,0.9412,0.9415,0.9414,0.94,0.94,0.94,0.94,0,0,0,0,0,0,0,0.9487,0.9486,0.9474,0.9467,0.9465,0.9456,0.9454,0.9454,0.9434,0.944,0.9437,0.9435,0.9415,0.9413,0.9412,0.9413,0.94,0.94,0.94,0.94,0.9428,0.9429,0,0,0,0,0,0,0.9491,0.9487,0.9475,0.9474,0.9473,0.9457,0.9454,0.9452,0.9433,0.943,0.9436,0.9434,0.9414,0.9412,0.9411,0.9427,0.94,0.94,0.9399,0.9427,0.9428,0.9429,0,0,0,0,0,0,0.9492,0.949,0.9476,0.948,0.9477,0.9457,0.9456,0.9452,0.945,0.9431,0.9427,0.9437,0.9413,0.9411,0.9415,0.9426,0.9399,0.9399,0.9426,0.9427,0.9428,0.9461,0,0,0,0,0,0,0.9492,0.9491,0.9496,0.948,0.9477,0.9481,0.9457,0.9453,0.945,0.9447,0.9431,0.9427,0.9412,0.9416,0.9415,0.9425,0.9399,0.9425,0.9426,0.9428,0.9459,0.9464,0.9467,0,0,0,0,0,0.9493,0.9506,0.9497,0.9496,0.9484,0.9482,0.948,0.9463,0.9451,0.9456,0.9444,0.9428,0.9425,0.9416,0.9415,0.9426,0.9424,0.9426,0.9428,0.9457,0.9463,0.9467,0,0,0,0,0,0,0.9524,0.9504,0.9493,0.9502,0.9494,0.9476,0.9483,0.9469,0.9464,0.9461,0.944,0.9436,0.9443,0.9435,0.9425,0.944,0.9422,0.9424,0.9445,0.945,0.9454,0.9456,0.9399,0,0,0,0,0,0.9532,0.9532,0.9515,0.9524,0.9521,0.9503,0.9501,0.9488,0.9479,0.9476,0.9463,0.9455,0.9452,0.9451,0.9447,0.9458,0.9454,0.9465,0.9469,0.9473,0.9474,0.948,0.9484,0.9435,0.9435,0.9435,0,0,0.9548,0.9537,0.9539,0.953,0.9522,0.9523,0.95,0.9501,0.9502,0.9476,0.9479,0.947,0.9459,0.9467,0.947,0.946,0.9487,0.9475,0.9478,0.9478,0.9482,0.9487,0.9491,0.9437,0.9436,0.9436,0,0,0.9578,0.957,0.9577,0.957,0.9559,0.9547,0.9549,0.9534,0.9527,0.953,0.9511,0.9511,0.9507,0.95,0.9496,0.9524,0.9509,0.9524,0.9545,0.9551,0.9554,0.9558,0.9568,0.9572,0.9526,0.9526,0.9526,0,0.9599,0.96,0.9582,0.9585,0.9582,0.9559,0.9566,0.956,0.9549,0.9547,0.9537,0.9531,0.9522,0.9528,0.9535,0.9533,0.9534,0.9525,0.9555,0.9558,0.9561,0.9571,0.9574,0.9527,0.9527,0.9527,0.9527,0,0.9627,0.9627,0.9634,0.9624,0.9622,0.9627,0.961,0.961,0.9598,0.9587,0.9591,0.9579,0.9573,0.9574,0.9562,0.9578,0.9573,0.9559,0.9541,0.9568,0.9576,0.958,0.953,0.9529,0.9529,0.9528,0,0,0.9674,0.9655,0.9658,0.9653,0.964,0.964,0.9645,0.9639,0.9639,0.9632,0.9635,0.9633,0.9621,0.9616,0.9603,0.9608,0.9632,0.9594,0.9594,0.9601,0.9649,0.9659,0.9663,0.9622,0.9623,0.9623,0.965,0,0.9701,0.9707,0.9692,0.9702,0.9702,0.9681,0.9685,0.9677,0.9668,0.9666,0.9656,0.9654,0.9638,0.9635,0.964,0.9628,0.9641,0.9626,0.9624,0.9624,0.9627,0.9668,0.9678,0.9703,0.9653,0.9654,0.9654,0,0.9733,0.9728,0.9738,0.9725,0.9725,0.9728,0.9723,0.9722,0.9713,0.9706,0.9701,0.9687,0.969,0.9673,0.9677,0.9667,0.9665,0.966,0.966,0.9659,0.964,0.9667,0.9711,0.9715,0.9659,0.9659,0.9658,0,0.9766,0.9763,0.9768,0.9765,0.975,0.9753,0.9747,0.9737,0.9735,0.973,0.9729,0.9724,0.9721,0.9718,0.9702,0.9692,0.9708,0.969,0.9702,0.9702,0.9705,0.9705,0.975,0.9706,0.9706,0.9705,0.9705,0,0.9797,0.9804,0.9783,0.9787,0.9794,0.9776,0.9784,0.9776,0.9767,0.9769,0.9751,0.9752,0.9732,0.9731,0.972,0.9725,0.9724,0.9717,0.9714,0.9719,0.9719,0.9717,0.9714,0.9706,0.9706,0.9706,0.9706,0,0.9836,0.9822,0.9826,0.9812,0.9809,0.9815,0.9802,0.9805,0.9795,0.9797,0.9796,0.978,0.9778,0.9763,0.9758,0.975,0.9759,0.9753,0.9762,0.976,0.9773,0.9772,0.9816,0.9821,0.9775,0.9775,0.9776,0,0.9856,0.9861,0.9848,0.9847,0.9842,0.9842,0.984,0.9824,0.9822,0.9813,0.9817,0.9814,0.9811,0.9809,0.9797,0.9793,0.9786,0.9802,0.9785,0.979,0.9786,0.9785,0.9786,0.9805,0.9806,0.9806,0.9807,0,0.9894,0.9887,0.9885,0.9881,0.988,0.9876,0.987,0.9871,0.9853,0.9852,0.9851,0.9848,0.9844,0.9841,0.9835,0.9829,0.9815,0.9812,0.9815,0.9819,0.9824,0.9821,0.9772,0.9811,0.9811,0.981,0.981,0.981,0.9923,0.9927,0.9918,0.9917,0.9911,0.9907,0.9909,0.9899,0.9898,0.9893,0.9883,0.9884,0.9875,0.9866,0.9861,0.986,0.9852,0.9856,0.9856,0.9857,0.986,0.9825,0.9859,0.9859,0.9859,0.9859,0.9859,0,0.996,0.9954,0.9953,0.9946,0.9945,0.9933,0.9927,0.9927,0.9927,0.9921,0.9918,0.9917,0.9915,0.9902,0.9899,0.9901,0.9894,0.99,0.99,0.9898,0.9868,0.9866,0.9906,0.9906,0.9906,0.9906,0.9906,0.9906,0.9979,0.9984,0.9977,0.9979,0.9973,0.9973,0.997,0.9967,0.9961,0.9961,0.9959,0.9951,0.9942,0.9938,0.9935,0.9932,0.9931,0.9939,0.9934,0.9905,0.99,0.9896,0.9894,0.9939,0.9939,0.9964,0.9964,0.9965]}]]